Tracking 28125 objects as of 2-Oct-2023
HD Live streaming from Space Station
objects crossing your sky now

STARLINK-5174

Track STARLINK-5174 now!
10-day predictions
STARLINK-5174 is classified as:


NORAD ID: 54067
Int'l Code: 2022-136S
Perigee: 546.0 km
Apogee: 547.9 km
Inclination: 53.2 °
Period: 95.4 minutes
Semi major axis: 6917 km
RCS: Unknown
Launch date: October 20, 2022
Source: United States (US)
Launch site: AIR FORCE EASTERN TEST RANGE (AFETR)
Your satellite tracking list
Your tracking list is empty




NASA's NSSDC Master Catalog

Two Line Element Set (TLE):
1 54067U 22136S   23275.52587437  .00016555  00000-0  10563-2 0  9995
2 54067  53.2179  15.5062 0001392  77.6716 282.4432 15.08822478 53096
Source of the keplerian elements: AFSPC